Regional Weather Roundup
Issued by NWS Wakefield, VA

Home | Current Version | Previous Version | Text Only | Print | Product List | Glossary On
Versions: 1 2 3 4 5 6 7 8 9 10 11 12 13 14 15 16 17 18 19 20 21 22 23 24 25 26 27 28 29 30 31 32 33 34 35 36 37 38 39 40 41 42 43 44 45 46 47 48 49 50
506
ASUS41 KAKQ 250415
RWRAKQ

REGIONAL WEATHER ROUNDUP
NATIONAL WEATHER SERVICE WAKEFIELD VA
1200 AM EDT MON JUL 25 2016

Note: "fair" indicates few or no clouds below 12,000 feet with no
significant weather and/or obstructions to visibility. * = Denotes
station may not report precipitation (e.g., rain,snow,etc.),
thunder or fog.

VAZ042-051-052>054-056-250500-
NORTHERN VIRGINIA

CITY           SKY/WX    TMP DP  RH WIND       PRES   REMARKS
WASH NATIONAL  TSTM      86  74  67 N3        29.97R
DULLES         FAIR      79  73  82 SE3       29.97S
FORT BELVOIR   NOT AVBL
QUANTICO       MOCLDY    86  76  71 S6        29.97S HX  96
FREDERICKSBRG* FAIR      83  77  82 CALM      29.96S
STAFFORD*      FAIR      77  74  92 CALM      30.00F
WARRENTON      FAIR      79  72  78 CALM      29.98S
CULPEPER*      FAIR      79  76  92 CALM      29.99S
MANASSAS*      MOCLDY    81  73  78 CALM      29.98S
LEESBURG*      FAIR      82  75  78 N3        30.00R
WINCHESTER     FAIR      77  72  83 SW5       30.01R
FRONT ROYAL*   FAIR      77  72  83 S3        30.00S
LURAY*         FAIR      75  73  94 CALM      30.03R
$$

VAZ048-049-060>072-079>083-250500-
CENTRAL AND SOUTH CENTRAL VIRGINIA

CITY           SKY/WX    TMP DP  RH WIND       PRES   REMARKS
RICHMOND       FAIR      82  74  76 SW9       29.98F
CHESTERFIELD*  FAIR      82  64  54 S5        30.01S
PETERSBURG*    FAIR      81  77  89 S3        30.00F
HANOVER        FAIR      85  73  67 S5        29.99F
TAPPAHANNOCK*  FAIR      82  76  81 S3        29.99S
QUINTON*       FAIR      83  78  84 CALM      29.98S
CHARLOTTSVILLE FAIR      81  73  76 N5        30.00R
GORDONSVILLE*  FAIR      78  77  95 CALM      29.98S
ORANGE*          N/A     81  77  89 CALM      30.00F
LOUISA*        FAIR      86  79  79 CALM      29.98S HX  99
BUMPASS*       FAIR      81  77  88 CALM      29.99R
FARMVILLE*     FAIR      82  73  75 SW5       29.99S
CREWE*         FAIR      81  77  89 S3        30.00F
FORT PICKETT*  FAIR      78  77  96 SW13G18   30.01F
CHASE CITY*    FAIR      76  74  94 CALM      30.02F
CLARKSVILLE*   FAIR      73  73 100 CALM      30.02F
SOUTH HILL*    FAIR      75  74  96 SW3       30.08F
LAWRENCEVILLE* FAIR      78  75  92 CALM      30.02S
EMPORIA*       FAIR      73  72  94 CALM      30.02F
$$

VAZ088>098-250500-
SOUTHEAST VIRGINIA

CITY           SKY/WX    TMP DP  RH WIND       PRES   REMARKS
NORFOLK        FAIR      85  74  69 SW6       30.00S
VIRGINIA BEACH FAIR      88  76  67 S7        30.00S HX  99
NORFOLK NAVAL  FAIR      85  74  69 SW6       30.01F
WEST POINT*    FAIR      82  77  86 CALM      29.99S
SALUDA*        FAIR      82  80  94 S3        29.98S
NEWPORT NEWS   FAIR      85  76  74 SW9       29.99F
LANGLEY AFB    FAIR      86  76  71 SE8       29.99F HX  96
FORT EUSTIS    FAIR      85  78  78 VRB6      29.97F HX  96
WILLIAMSBURG*  FAIR      88  75  66 SW3       30.00S HX  97
HR EXEC AP*    FAIR      77  72  83 SW3       30.03S
FRANKLIN*      FAIR      79  75  87 S3        30.01S
US460-WAKEFLD  FAIR      81  75  82 CALM      30.00F
$$

VAZ020-022-025-037-045-250500-
WEST CENTRAL AND SOUTHWEST VIRGINIA

CITY           SKY/WX    TMP DP  RH WIND       PRES   REMARKS
STAUNTON*      FAIR      74  71  89 CALM      30.07R
WAYNESBORO*    FAIR      76  71  84 CALM      30.07S
HOT SPRINGS VA NOT AVBL
LYNCHBURG      FAIR      78  73  84 SW5       30.05F
DANVILLE       FAIR      79  73  82 S3        30.03F
SOUTH BOSTON*  FAIR      75  74  95 CALM      30.02F
MARTINSVILLE   FAIR      73  71  95 CALM      30.07F FOG
ROANOKE        FAIR      78  70  76 W3        30.07S
BLACKSBURG     FAIR      73  71  93 CALM      30.15S
DUBLIN*        FAIR      75  69  82 CALM      30.13S
MARION*        FAIR      73  70  89 CALM      30.18S
HILLSVILLE*    FAIR      74  69  85 S6        30.16S
RICHLANDS*     FAIR      75  72  88 CALM      30.16S
WISE*          FAIR      75  61  60 CALM      30.16F
ABINGDON*      FAIR      76  73  90 CALM      30.12F
$$

MDZ021>025-VAZ099-100-250500-
SOUTHERN MARYLAND AND THE DELMARVA PENINSULA

CITY           SKY/WX    TMP DP  RH WIND       PRES   REMARKS
PATUXENT RIVER CLOUDY    84  78  82 S7        29.97F HX  95
BAY BRIDGE APT CLOUDY    86  75  70 S8        29.96S HX  95
LEONARDTOWN    MOCLDY    82  77  83 SE5       29.99S
DOVER          PTCLDY    78  72  83 S6        29.97F
GEORGETOWN     CLOUDY    78  75  90 S9        29.99F
EASTON         CLOUDY    82  75  80 S7        30.00F
CAMBRIDGE      MOCLDY    77  73  88 SE5       29.97F
SALISBURY      PTCLDY    77  75  93 CALM      29.99F
OCEAN CITY     PTCLDY    78  77  96 VRB3      29.99F
WALLOPS ISLAND FAIR      81  79  94 S5        29.99F
ACCOMACK*      FAIR      81  77  89 CALM      29.99S
$$

NCZ012>017-030>032-250500-
NORTH CENTRAL AND EASTERN NORTH CAROLINA

CITY           SKY/WX    TMP DP  RH WIND       PRES   REMARKS
ROANOKE RAPIDS FAIR      79  75  89 S6        30.02F
RALEIGH        PTCLDY    83  73  72 S6        30.04S
ELIZABETH CITY CLEAR     82  78  88 S10       30.03S
AHOSKIE*       CLEAR     78  76  95 S5        30.03S
EDENTON*       CLEAR     83  75  76 SW6       30.04S
CURRITUCK*     CLEAR     83  79  87 S3        30.02F
KILL DEVIL HLS CLEAR     82  76  82 SW6       30.03F
MANTEO           N/A     82  79  91 SW12      30.05S
CAPE HATTERAS  PTCLDY    82  78  88 SW7       30.06S
TARBORO*       FAIR      82  76  83 S5        30.04S
GOLDSBORO      CLEAR     82  80  96 S5        30.03S
WASHINGTON     CLEAR     79  75  87 S5        30.04F
GREENVILLE     CLEAR     81  77  89 SW7       30.05F
NEW BERN       CLEAR     79  76  90 S6        30.07R
WILMINGTON     CLEAR     79  75  87 S5        30.06S
$$

VAZ048-250500-
ELSEWHERE

CITY           SKY/WX    TMP DP  RH WIND       PRES   REMARKS
HARRISBURG PA  CLOUDY    78  75  90 SE3       29.97F
BALTIMORE      CLOUDY    80  72  76 CALM      29.97S
ANNAPOLIS      CLOUDY    86  79  79 S6        29.96S HX  99
ANDREWS AFB    MOCLDY    82  77  83 S3        29.96S
PHILADELPHIA   CLOUDY    82  63  52 SW6       29.98F
GREENSBORO     PTCLDY    82  72  71 S6        30.05S
ROCKY MOUNT    CLEAR     79  76  90 S3        30.04S
$$

VAZ100-250500-
MARINE

STATION/POSITION TIME  TEMP    WIND        PRES    WAVE   SWELL
                       AIR SEA DIR/SP/G            HT/PER HT/PER
                 (UTC) (F)     (DEG/KT/KT) (MB)    (FT/S) (FT/S)
CAPE MAY NJ      0300      73              1015.6
LEWES DE         0300      74              1015.7
OCEAN-CITY-INLET 0300      72              1016.4
WACHAPREAGUE VA  0300      87              1015.8
THOMAS POINT MD  0400   85 83  170/ 16/ 17 1015.6F
GOOSES REEF MD   0400   86 84  170/ 14/ 16 1015.5F   2/ 3
COVE POINT MD    0300                      1015.6
SOLOMONS ISLAND  0300      86                N/A
BISHOPS HEAD MD  0300                      1015.8
PINEY POINT MD   0312          170/  9/ 11   N/A
POTOMAC MD       0400   85 85  190/ 10/ 12 1013.9F   1/ 3
CAMBRIDGE MD     0300      86              1014.4
LEWISETTA VA     0300      88              1014.9
RAPPAHANNOCK LGT 0300                      1016.3S
STINGRAY PT      0400   87 86  150/ 10/ 12 1015.5F   1/ 2
YORK RVR RNG VA  0300                      1015.3
YORKTOWN VA      0300      85              1015.3
JAMESTOWN VA     0400   86 88  210/  8/ 10   N/A     0
DOMINION TERM VA 0300                      1016.1
KIPTOPEKE VA     0300      83                N/A
CHES BAY BRIDGE  0300      76              1015.9
CAPE HENRY VA    0318   85     200/  6/  7   N/A
WILLOUBY STN VA  0318   87     250/  8/  9   N/A
CAPE HENRY BUOY  0312      79                N/A     2/ 8
1ST LANDING BUOY 0400   83 81  190/  4/  6 1015.5F
CAPE CHARLES BUO 0326      74                N/A     2/ 8
OFFSHORE WE BUOY 0321      82                N/A     3/ 4
64NM E OF VA BCH 0350   83 81  220/ 12/ 14 1016.3S   3/ 5   2/ 8
DUCK PIER NC     0300      63              1016.4
44100 DUCK FRF   0305      80                N/A     2/ 4
44056 DUCK FRF   0311      77                N/A     1/ 8
OREGON INLET NC  0300      84              1017.2
HATTERAS NC      0300      84              1017.6
DIAMOND SHLS NC  0250   85 85  220/ 14/ 16 1017.8    2/ 8   2/ 8
CAPE LOOKOUT NC  0400   83     220/  7/ 10 1017.8R
$$




USA.gov is the U.S. government's official web portal to all federal, state and local government web resources and services.